Orbital Elements at Epoch 2459200.5 (2020-Dec-17.0) TDB
Reference: JPL 22 (heliocentric ecliptic J2000)
Element | Value | Uncertainty (1-sigma) | Units |
e | .2170420413069606 | 6.8051e-08 | |
a | 2.576782574709324 | 1.8905e-08 | au |
q | 2.017512424690207 | 1.8375e-07 | au |
i | 9.814380065010228 | 6.9022e-06 | deg |
node | 351.7837904572697 | 2.0511e-05 | deg |
peri | 354.0642263350189 | 2.2544e-05 | deg |
M | 263.1935345313544 | 1.4635e-05 | deg |
tp | 2459606.772056310931 (2022-Jan-27.27205631) | 6.5188e-05 | TDB |
period | 1510.828223754397 4.14 | 1.6626e-05 4.552e-08 | d yr |
n | .238279901275211 | 2.6222e-09 | deg/d |
Q | 3.136052724728442 | 2.3008e-08 | au |
|
| | Orbit Determination Parameters
Additional Information
|